"startDT [UTC]","vpos","CH4 [ppm]","stdev(CH4) [ppm]","CO2 [ppm]","stdev(CO2) [ppm]","H2O_reported [%]","stdev(H2O_reported)","CavityPressure [torr]","CavityTemp [C]","OutletValve","CH4_dry [ppm]","CO2_dry [ppm]","DasTemp [C]","EtalonTemp [C]","WarmBoxTemp [C]","MPVPosition","T_ECpre [C]","T_EC1 [C]","T_EC2 [C]","p_inlet [hPa]","p_in [hPa]","p_out [hPa]","T_inlet [C]","RH_inlet [%]","dwpt_inlet [C]","T_vent [C]","RH_vent [%]","dwpt_vent [C]","flow_vent [l min-1]","flow_inlet [l min-1]","dwpt_sample [C]","T_room [C]"
2015-01-31 00:00:00,3.0,1.88536,0.03170,400.072,3.923,0.0189,0.0309,140.172,45.000,31209.18654,1.88906,400.389,33.872,45.067,45.000,0.00,0.09,-272.69,-272.74,-9,517,-2,20.3,3.3,-25.1,20.7,3.4,-24.7,5.73,1.80,-21.2,26.8
2015-01-31 00:01:00,3.0,1.87609,0.00037,397.235,0.064,0.0043,0.0017,140.005,45.000,31323.75656,1.87615,397.259,33.875,45.067,45.000,0.00,0.09,-272.65,-272.79,-6,517,-2,20.3,3.3,-25.1,20.7,3.4,-24.7,5.73,2.03,-21.2,26.9
2015-01-31 00:02:00,3.0,1.87582,0.00039,397.263,0.083,0.0037,0.0014,140.002,45.000,31363.59531,1.87587,397.276,33.876,45.067,45.000,0.00,0.09,-272.70,-272.74,-5,517,-2,20.3,3.3,-25.1,20.7,3.4,-24.7,5.73,2.87,-21.2,26.9
2015-01-31 00:03:00,3.0,1.87577,0.00039,397.519,0.045,0.0036,0.0016,140.002,45.000,31396.71570,1.87584,397.534,33.876,45.067,45.000,0.00,0.09,-272.72,-272.71,-10,517,-2,20.3,3.3,-25.1,20.7,3.4,-24.7,5.73,2.23,-21.2,26.9
2015-01-31 00:04:00,3.0,1.87557,0.00036,397.596,0.030,0.0035,0.0018,140.004,45.000,31421.96689,1.87564,397.611,33.875,45.067,45.000,0.00,0.09,-272.66,-272.77,-5,517,-2,20.4,3.3,-25.2,20.7,3.4,-24.7,5.73,1.76,-21.2,26.9
2015-01-31 00:05:00,3.0,1.87579,0.00034,397.616,0.025,0.0022,0.0016,140.001,45.000,31444.68874,1.87582,397.626,33.875,45.067,45.000,0.00,0.09,-272.68,-272.76,-6,517,-2,20.4,3.3,-25.2,20.7,3.4,-24.7,5.73,2.65,-21.2,27.0
2015-01-31 00:06:00,3.0,1.87596,0.00042,397.637,0.028,0.0013,0.0021,140.002,45.000,31463.46819,1.87601,397.643,33.888,45.067,45.000,0.00,0.09,-272.73,-272.70,-9,517,-2,20.4,3.3,-25.1,20.7,3.4,-24.7,5.73,2.66,-21.2,27.0
2015-01-31 00:07:00,3.0,1.87600,0.00049,397.638,0.026,0.0016,0.0014,140.002,45.000,31478.20682,1.87601,397.646,33.924,45.067,45.000,0.00,0.09,-272.68,-272.75,-4,517,-2,20.5,3.3,-25.1,20.7,3.4,-24.7,5.73,1.76,-21.2,27.0
2015-01-31 00:08:00,3.0,1.87625,0.00034,397.630,0.035,0.0011,0.0024,140.001,45.000,31493.10309,1.87626,397.635,33.939,45.067,45.000,0.00,0.09,-272.66,-272.79,-7,517,-2,20.5,3.3,-25.1,20.8,3.4,-24.6,5.73,2.15,-21.2,27.1
2015-01-31 00:09:00,3.0,1.87609,0.00036,397.636,0.029,0.0010,0.0025,140.000,45.000,31505.35401,1.87612,397.641,33.955,45.067,45.000,0.00,0.09,-272.71,-272.74,-9,517,-2,20.6,3.3,-25.1,20.8,3.4,-24.6,5.73,2.89,-21.1,27.1
2015-01-31 00:10:00,3.0,1.87601,0.00037,397.667,0.028,0.0003,0.0028,140.001,45.000,31517.66452,1.87602,397.668,33.950,45.067,45.000,0.00,0.09,-272.71,-272.72,-5,517,-0,20.6,3.3,-25.1,20.9,3.4,-24.6,5.73,2.24,-21.1,27.1
2015-01-31 00:11:00,3.0,1.87617,0.00045,397.650,0.024,-0.0006,0.0013,140.002,45.000,31526.31457,1.87616,397.648,33.938,45.067,45.000,0.00,0.09,-272.65,-272.77,-6,518,-1,20.6,3.3,-25.1,20.9,3.4,-24.6,5.73,1.72,-21.1,27.2
2015-01-31 00:12:00,3.0,1.87597,0.00029,397.645,0.030,-0.0007,0.0019,139.997,45.000,31536.00726,1.87596,397.641,33.937,45.068,45.000,0.00,0.09,-272.67,-272.77,-10,517,-1,20.7,3.3,-25.1,20.9,3.4,-24.5,5.73,2.50,-21.1,27.2
2015-01-31 00:13:00,3.0,1.87588,0.00027,397.652,0.023,0.0003,0.0021,140.002,45.000,31544.64707,1.87588,397.654,33.930,45.068,45.000,0.00,0.09,-272.72,-272.71,-5,518,-2,20.7,3.3,-25.0,21.0,3.4,-24.5,5.73,2.84,-21.1,27.2
2015-01-31 00:14:00,3.0,1.87603,0.00027,397.650,0.044,0.0001,0.0018,140.003,45.000,31551.70370,1.87604,397.651,33.931,45.068,45.000,0.00,0.09,-272.71,-272.73,-6,518,-2,20.8,3.3,-24.9,21.0,3.4,-24.5,5.73,1.99,-21.1,27.3
2015-01-31 00:15:00,3.0,1.87603,0.00041,397.659,0.022,0.0000,0.0023,140.003,45.000,31557.10013,1.87603,397.660,33.939,45.068,45.001,0.00,0.09,-272.66,-272.79,-10,518,-2,20.8,3.3,-24.9,21.0,3.4,-24.5,5.73,1.80,-21.1,27.3
2015-01-31 00:16:00,3.0,1.87606,0.00033,397.672,0.036,0.0001,0.0023,140.002,45.000,31561.21655,1.87606,397.672,33.939,45.068,45.000,0.00,0.09,-272.67,-272.76,-5,518,-2,20.8,3.3,-24.9,21.1,3.4,-24.4,5.73,2.66,-21.1,27.3
2015-01-31 00:17:00,3.0,1.87609,0.00031,397.662,0.027,-0.0004,0.0013,140.000,45.000,31566.46927,1.87609,397.661,33.945,45.068,45.000,0.00,0.09,-272.73,-272.71,-6,518,-2,20.9,3.3,-24.9,21.1,3.4,-24.5,5.73,2.79,-21.1,27.4
2015-01-31 00:18:00,3.0,1.87618,0.00040,397.661,0.031,-0.0002,0.0016,139.998,45.000,31569.86330,1.87618,397.660,33.981,45.068,45.000,0.00,0.09,-272.70,-272.73,-10,518,-2,20.9,3.3,-24.9,21.1,3.4,-24.5,5.73,1.90,-21.1,27.4
2015-01-31 00:19:00,3.0,1.87607,0.00039,397.670,0.025,-0.0001,0.0022,140.002,45.000,31574.43093,1.87603,397.669,34.005,45.067,45.000,0.00,0.09,-272.65,-272.78,-6,519,-2,21.0,3.3,-24.9,21.2,3.4,-24.5,5.73,1.86,-21.1,27.4
2015-01-31 00:20:00,0.0,1.95978,0.03336,408.115,4.454,0.0788,0.0353,139.813,45.000,29175.61036,1.95789,408.273,34.039,45.067,45.000,0.00,0.09,-272.70,-272.73,-8,165,-1,21.0,3.2,-24.9,21.2,3.4,-24.5,5.73,2.65,-21.1,27.4
2015-01-31 00:21:00,0.0,1.97339,0.00036,410.112,0.030,0.1006,0.0015,139.998,45.000,29064.11251,1.97533,410.607,34.055,45.067,45.000,0.00,0.09,-272.67,-272.77,-7,166,-2,21.1,3.2,-24.9,21.2,3.4,-24.4,5.73,2.16,-21.1,27.4
2015-01-31 00:22:00,0.0,1.97323,0.00033,410.108,0.028,0.1008,0.0020,139.999,45.000,29025.34627,1.97522,410.608,34.047,45.067,45.000,0.00,0.09,-272.70,-272.74,-10,164,-2,21.1,3.2,-25.0,21.3,3.4,-24.4,5.73,2.26,-21.1,27.5
2015-01-31 00:23:00,0.0,1.97328,0.00038,410.102,0.034,0.1010,0.0016,140.000,45.000,28994.62898,1.97523,410.602,34.046,45.067,45.000,0.00,0.09,-272.69,-272.74,-10,165,-3,21.1,3.2,-25.0,21.3,3.4,-24.4,5.73,2.59,-21.1,27.5
2015-01-31 00:24:00,0.0,1.97310,0.00023,410.089,0.026,0.1019,0.0019,140.002,45.000,28969.42276,1.97508,410.591,34.053,45.067,45.000,0.00,0.09,-272.67,-272.76,-8,165,-2,21.2,3.2,-25.0,21.3,3.4,-24.4,5.73,2.06,-21.0,27.5
2015-01-31 00:25:00,0.0,1.97297,0.00031,410.103,0.020,0.1024,0.0015,139.999,45.000,28948.19110,1.97495,410.609,34.062,45.067,45.000,0.00,0.09,-272.71,-272.73,-9,164,-3,21.2,3.2,-25.0,21.3,3.4,-24.3,5.73,2.42,-21.0,27.5
2015-01-31 00:26:00,0.0,1.97328,0.00030,410.106,0.023,0.1028,0.0017,140.000,45.000,28931.13251,1.97528,410.614,34.062,45.067,45.000,0.00,0.09,-272.68,-272.76,-10,165,-3,21.2,3.2,-24.9,21.4,3.4,-24.3,5.73,2.47,-21.0,27.5
2015-01-31 00:27:00,0.0,1.97316,0.00037,410.100,0.026,0.1028,0.0014,140.001,45.000,28918.01796,1.97515,410.608,34.067,45.068,45.000,0.00,0.09,-272.68,-272.75,-8,165,-3,21.2,3.2,-24.9,21.4,3.4,-24.3,5.73,2.04,-21.0,27.5
2015-01-31 00:28:00,0.0,1.97348,0.00036,410.089,0.028,0.1033,0.0017,140.001,45.000,28904.10762,1.97547,410.600,34.089,45.068,45.000,0.00,0.09,-272.72,-272.74,-9,164,-3,21.2,3.2,-24.9,21.4,3.4,-24.3,5.73,2.57,-21.0,27.5
2015-01-31 00:29:00,0.0,1.97329,0.00040,410.087,0.035,0.1026,0.0020,139.998,45.000,28895.80318,1.97530,410.594,34.124,45.068,45.000,0.00,0.09,-272.67,-272.77,-11,165,-3,21.2,3.2,-24.9,21.4,3.4,-24.3,5.73,2.28,-21.0,27.5
2015-01-31 00:30:00,0.0,1.97331,0.00049,410.072,0.022,0.1037,0.0018,140.001,45.000,28887.19595,1.97533,410.584,34.125,45.067,45.000,0.00,0.09,-272.69,-272.73,-9,165,-3,21.2,3.2,-24.9,21.4,3.4,-24.3,5.73,2.15,-21.0,27.6
2015-01-31 00:31:00,0.0,1.97348,0.00042,410.103,0.020,0.1036,0.0019,140.000,45.000,28878.74431,1.97546,410.614,34.123,45.067,45.000,0.00,0.09,-272.70,-272.74,-9,164,-3,21.3,3.2,-24.9,21.4,3.4,-24.3,5.73,2.62,-21.0,27.6
2015-01-31 00:32:00,0.0,1.97310,0.00045,410.086,0.032,0.1040,0.0011,140.003,45.000,28875.72204,1.97514,410.600,34.127,45.067,45.000,0.00,0.09,-272.67,-272.76,-11,165,-3,21.2,3.2,-24.9,21.4,3.4,-24.3,5.73,2.08,-21.0,27.5
2015-01-31 00:33:00,0.0,1.97297,0.00034,410.091,0.026,0.1041,0.0023,139.998,45.000,28869.40727,1.97503,410.605,34.170,45.067,45.000,0.00,0.09,-272.70,-272.73,-9,165,-3,21.3,3.2,-24.9,21.4,3.4,-24.3,5.73,2.38,-21.0,27.5
2015-01-31 00:34:00,0.0,1.97313,0.00038,410.074,0.039,0.1038,0.0021,139.999,45.000,28863.14572,1.97512,410.586,34.183,45.067,45.000,0.00,0.09,-272.68,-272.75,-9,164,-3,21.2,3.2,-24.8,21.5,3.4,-24.3,5.73,2.49,-21.0,27.5
2015-01-31 00:35:00,0.0,1.97342,0.00046,410.090,0.027,0.1038,0.0017,139.999,45.000,28857.29733,1.97541,410.603,34.200,45.067,45.000,0.00,0.09,-272.68,-272.75,-11,164,-3,21.2,3.2,-24.8,21.5,3.4,-24.2,5.73,2.03,-20.9,27.5
2015-01-31 00:36:00,0.0,1.97352,0.00047,410.082,0.030,0.1039,0.0016,140.002,45.000,28853.84571,1.97559,410.595,34.233,45.067,45.000,0.00,0.09,-272.70,-272.73,-10,165,-3,21.3,3.2,-24.9,21.5,3.4,-24.3,5.73,2.57,-20.9,27.5
2015-01-31 00:37:00,0.0,1.97321,0.00032,410.087,0.033,0.1036,0.0016,140.000,45.000,28851.78823,1.97521,410.599,34.249,45.067,45.000,0.00,0.09,-272.65,-272.76,-8,164,-3,21.3,3.2,-24.9,21.5,3.4,-24.3,5.73,2.28,-20.9,27.6
2015-01-31 00:38:00,0.0,1.97336,0.00045,410.082,0.024,0.1047,0.0016,140.000,45.000,28849.84111,1.97537,410.599,34.258,45.067,45.000,0.00,0.09,-272.69,-272.74,-10,164,-3,21.2,3.2,-24.8,21.5,3.4,-24.3,5.73,2.14,-20.9,27.6
2015-01-31 00:39:00,0.0,1.97345,0.00042,410.066,0.038,0.1046,0.0014,140.000,45.000,28848.81717,1.97551,410.583,34.253,45.067,45.000,0.00,0.09,-272.70,-272.74,-10,165,-3,21.2,3.2,-24.8,21.5,3.4,-24.3,5.73,2.64,-20.9,27.6
2015-01-31 00:40:00,0.0,1.97307,0.00037,410.062,0.029,0.1046,0.0013,139.998,45.000,28842.83959,1.97513,410.579,34.257,45.067,45.000,0.00,0.09,-272.66,-272.76,-8,164,-3,21.2,3.2,-24.8,21.5,3.4,-24.3,5.73,2.11,-20.9,27.6
2015-01-31 00:41:00,0.0,1.97311,0.00038,410.072,0.024,0.1052,0.0015,140.002,45.000,28844.78398,1.97514,410.591,34.261,45.067,45.000,0.00,0.09,-272.70,-272.73,-10,164,-3,21.2,3.3,-24.8,21.5,3.4,-24.3,5.73,2.36,-20.9,27.5
2015-01-31 00:42:00,0.0,1.97296,0.00037,410.086,0.027,0.1049,0.0019,140.000,45.000,28841.93073,1.97500,410.603,34.311,45.067,45.000,0.00,0.09,-272.68,-272.75,-10,164,-3,21.2,3.3,-24.7,21.5,3.4,-24.3,5.73,2.53,-20.9,27.5
2015-01-31 00:43:00,0.0,1.97309,0.00050,410.060,0.029,0.1045,0.0017,139.997,45.000,28841.43375,1.97512,410.577,34.313,45.068,45.000,0.00,0.09,-272.67,-272.75,-8,164,-3,21.2,3.3,-24.8,21.5,3.4,-24.3,5.73,2.03,-20.9,27.6
2015-01-31 00:44:00,0.0,1.97298,0.00057,410.055,0.032,0.1050,0.0017,139.998,45.000,28839.94032,1.97504,410.573,34.321,45.067,45.000,0.00,0.09,-272.70,-272.72,-10,163,-3,21.2,3.3,-24.7,21.5,3.4,-24.3,5.73,2.56,-20.9,27.5
2015-01-31 00:45:00,0.0,1.97287,0.00051,410.071,0.030,0.1048,0.0017,140.000,45.000,28838.15190,1.97491,410.589,34.351,45.067,45.000,0.00,0.09,-272.66,-272.76,-11,164,-3,21.2,3.3,-24.7,21.5,3.4,-24.2,5.73,2.29,-20.9,27.6
2015-01-31 00:46:00,0.0,1.97259,0.00031,410.074,0.037,0.1054,0.0012,139.997,45.000,28835.30602,1.97462,410.595,34.375,45.067,45.000,0.00,0.09,-272.69,-272.74,-9,164,-3,21.2,3.3,-24.7,21.5,3.4,-24.2,5.73,2.13,-20.9,27.6
2015-01-31 00:47:00,0.0,1.97256,0.00040,410.032,0.024,0.1061,0.0017,140.000,45.000,28839.57869,1.97464,410.556,34.402,45.067,45.000,0.00,0.09,-272.69,-272.73,-9,163,-3,21.2,3.3,-24.7,21.5,3.4,-24.2,5.73,2.63,-20.8,27.6
2015-01-31 00:48:00,0.0,1.97245,0.00040,410.051,0.030,0.1050,0.0018,140.000,45.000,28839.40363,1.97448,410.569,34.410,45.067,45.000,0.00,0.09,-272.66,-272.76,-11,164,-3,21.2,3.3,-24.7,21.5,3.4,-24.2,5.73,2.08,-20.8,27.6
2015-01-31 00:49:00,0.0,1.97273,0.00027,410.070,0.039,0.1058,0.0016,139.999,45.000,28833.83150,1.97478,410.593,34.398,45.067,45.000,0.00,0.09,-272.70,-272.73,-9,164,-3,21.2,3.3,-24.7,21.5,3.4,-24.2,5.73,2.37,-20.8,27.6
2015-01-31 00:50:00,0.0,1.97285,0.00027,410.076,0.027,0.1053,0.0015,140.002,45.000,28835.58242,1.97490,410.596,34.386,45.067,45.000,0.00,0.09,-272.67,-272.75,-9,163,-3,21.2,3.3,-24.7,21.5,3.4,-24.2,5.73,2.50,-20.8,27.6
2015-01-31 00:51:00,0.0,1.97287,0.00036,410.063,0.037,0.1051,0.0015,140.000,45.000,28833.77331,1.97492,410.583,34.375,45.067,45.000,0.00,0.09,-272.67,-272.74,-11,163,-3,21.2,3.3,-24.7,21.5,3.4,-24.2,5.73,2.03,-20.8,27.6
2015-01-31 00:52:00,0.0,1.97270,0.00035,410.057,0.031,0.1061,0.0011,140.001,45.000,28835.15401,1.97476,410.580,34.376,45.068,45.000,0.00,0.09,-272.70,-272.74,-9,164,-3,21.2,3.3,-24.7,21.5,3.4,-24.2,5.73,2.59,-20.8,27.6
2015-01-31 00:53:00,0.0,1.97256,0.00035,410.040,0.040,0.1066,0.0019,140.001,45.000,28836.20701,1.97465,410.567,34.375,45.068,45.000,0.00,0.09,-272.66,-272.77,-9,163,-3,21.2,3.3,-24.6,21.5,3.4,-24.2,5.73,2.24,-20.8,27.6
2015-01-31 00:54:00,0.0,1.97238,0.00026,410.051,0.024,0.1070,0.0014,139.998,45.000,28834.37478,1.97447,410.579,34.399,45.068,45.001,0.00,0.09,-272.69,-272.73,-11,163,-3,21.1,3.3,-24.6,21.5,3.4,-24.2,5.73,2.19,-20.8,27.6
2015-01-31 00:55:00,0.0,1.97262,0.00037,410.059,0.026,0.1060,0.0015,140.002,45.000,28831.21173,1.97467,410.583,34.402,45.068,45.000,0.00,0.09,-272.69,-272.74,-9,164,-3,21.1,3.3,-24.6,21.5,3.4,-24.2,5.73,2.61,-20.8,27.6
2015-01-31 00:56:00,0.0,1.97258,0.00033,410.074,0.030,0.1049,0.0016,140.002,45.000,28832.73751,1.97460,410.594,34.378,45.068,45.000,0.00,0.09,-272.67,-272.76,-8,163,-3,21.1,3.3,-24.7,21.5,3.4,-24.2,5.73,2.04,-20.8,27.5
2015-01-31 00:57:00,0.0,1.97235,0.00026,410.047,0.031,0.1052,0.0014,140.004,45.000,28837.10673,1.97444,410.564,34.376,45.068,45.000,0.00,0.09,-272.71,-272.72,-11,163,-3,21.1,3.3,-24.7,21.5,3.4,-24.2,5.73,2.46,-20.8,27.5
2015-01-31 00:58:00,0.0,1.97219,0.00044,410.043,0.028,0.1060,0.0022,140.001,45.000,28839.43500,1.97424,410.568,34.375,45.068,45.001,0.00,0.09,-272.67,-272.75,-10,164,-3,21.1,3.3,-24.6,21.5,3.4,-24.2,5.73,2.42,-20.8,27.5
2015-01-31 00:59:00,0.0,1.97239,0.00037,410.055,0.034,0.1062,0.0017,140.001,45.000,28838.84543,1.97442,410.579,34.372,45.068,45.000,0.00,0.09,-272.69,-272.74,-8,164,-3,21.1,3.3,-24.6,21.5,3.4,-24.2,5.73,2.06,-20.8,27.6
2015-01-31 01:00:00,0.0,1.97222,0.00037,410.036,0.030,0.1069,0.0017,140.000,45.000,28841.04353,1.97432,410.564,34.373,45.068,45.000,0.00,0.09,-272.69,-272.73,-11,164,-3,21.1,3.3,-24.6,21.5,3.4,-24.2,5.73,2.64,-20.8,27.6
2015-01-31 01:01:00,0.0,1.97212,0.00036,410.049,0.034,0.1074,0.0015,139.997,45.000,28838.86529,1.97421,410.579,34.375,45.068,45.000,0.00,0.09,-272.66,-272.76,-10,165,-3,21.1,3.3,-24.5,21.5,3.4,-24.2,5.73,2.12,-20.8,27.6
2015-01-31 01:02:00,0.0,1.97211,0.00039,410.039,0.033,0.1075,0.0018,139.999,45.000,28835.66092,1.97418,410.570,34.401,45.068,45.000,0.00,0.09,-272.70,-272.73,-8,164,-3,21.1,3.4,-24.5,21.5,3.4,-24.2,5.73,2.32,-20.8,27.6
2015-01-31 01:03:00,0.0,1.97292,0.00037,410.074,0.033,0.1072,0.0017,140.002,45.000,28836.71224,1.97500,410.604,34.434,45.067,45.000,0.00,0.09,-272.68,-272.75,-11,163,-3,21.1,3.3,-24.6,21.5,3.4,-24.2,5.73,2.54,-20.8,27.5
2015-01-31 01:04:00,0.0,1.97331,0.00035,410.077,0.022,0.1066,0.0022,140.003,45.000,28836.77999,1.97537,410.603,34.472,45.067,45.000,0.00,0.09,-272.67,-272.75,-10,164,-3,21.1,3.3,-24.6,21.5,3.4,-24.2,5.73,2.02,-20.7,27.5
2015-01-31 01:05:00,0.0,1.97285,0.00044,410.002,0.043,0.1084,0.0016,140.001,45.000,28837.45565,1.97499,410.539,34.503,45.067,44.999,0.00,0.09,-272.70,-272.73,-8,163,-3,21.1,3.4,-24.4,21.5,3.4,-24.2,5.73,2.58,-20.7,27.6
2015-01-31 01:06:00,0.0,1.97241,0.00033,409.993,0.030,0.1094,0.0017,140.002,45.000,28840.41845,1.97453,410.533,34.533,45.067,44.999,0.00,0.09,-272.66,-272.77,-11,163,-3,21.1,3.4,-24.3,21.5,3.4,-24.2,5.73,2.26,-20.7,27.6
2015-01-31 01:07:00,0.0,1.97251,0.00042,410.017,0.031,0.1100,0.0019,140.002,45.000,28840.33725,1.97463,410.560,34.561,45.067,44.999,0.00,0.09,-272.69,-272.73,-10,165,-3,21.1,3.4,-24.3,21.5,3.4,-24.1,5.73,2.18,-20.7,27.6
2015-01-31 01:08:00,0.0,1.97234,0.00041,410.005,0.032,0.1098,0.0015,140.002,45.000,28840.09002,1.97450,410.548,34.562,45.067,44.999,0.00,0.09,-272.69,-272.74,-8,164,-3,21.1,3.4,-24.2,21.5,3.4,-24.1,5.73,2.61,-20.7,27.6
2015-01-31 01:09:00,0.0,1.97237,0.00041,410.027,0.027,0.1096,0.0019,139.999,45.000,28839.48868,1.97447,410.568,34.567,45.067,45.000,0.00,0.09,-272.67,-272.76,-11,163,-3,21.1,3.4,-24.2,21.5,3.4,-24.1,5.73,2.03,-20.7,27.6
2015-01-31 01:10:00,0.0,1.97218,0.00044,410.011,0.023,0.1102,0.0014,139.999,45.000,28837.32067,1.97434,410.555,34.570,45.067,45.000,0.00,0.09,-272.71,-272.72,-11,164,-3,21.1,3.4,-24.2,21.5,3.4,-24.1,5.73,2.47,-20.7,27.6
2015-01-31 01:11:00,0.0,1.97244,0.00040,409.979,0.045,0.1101,0.0016,139.998,45.000,28836.87618,1.97460,410.523,34.564,45.067,45.000,0.00,0.09,-272.67,-272.75,-9,163,-3,21.1,3.4,-24.2,21.5,3.4,-24.1,5.73,2.40,-20.7,27.6
2015-01-31 01:12:00,0.0,1.97208,0.00044,409.989,0.030,0.1099,0.0018,140.000,45.000,28839.57645,1.97423,410.531,34.564,45.067,45.000,0.00,0.09,-272.69,-272.74,-11,163,-3,21.1,3.4,-24.3,21.5,3.4,-24.1,5.73,2.08,-20.7,27.6
2015-01-31 01:13:00,0.0,1.97227,0.00042,409.984,0.030,0.1099,0.0017,140.000,45.000,28842.96589,1.97440,410.527,34.561,45.068,45.000,0.00,0.09,-272.70,-272.74,-11,164,-3,21.1,3.4,-24.3,21.5,3.4,-24.1,5.73,2.64,-20.7,27.6
2015-01-31 01:14:00,0.0,1.97223,0.00041,409.980,0.025,0.1096,0.0019,140.001,45.000,28843.04634,1.97438,410.523,34.533,45.068,45.001,0.00,0.09,-272.66,-272.76,-9,164,-3,21.1,3.4,-24.3,21.5,3.4,-24.1,5.73,2.11,-20.7,27.6
2015-01-31 01:15:00,0.0,1.97176,0.00038,409.983,0.035,0.1094,0.0017,140.000,45.000,28841.52921,1.97390,410.524,34.536,45.068,45.001,0.00,0.09,-272.70,-272.73,-10,163,-3,21.1,3.4,-24.3,21.5,3.4,-24.1,5.73,2.35,-20.7,27.6
2015-01-31 01:16:00,0.0,1.97203,0.00037,409.965,0.028,0.1091,0.0011,140.000,45.000,28839.11088,1.97412,410.504,34.505,45.068,45.001,0.00,0.09,-272.68,-272.75,-11,164,-3,21.1,3.4,-24.3,21.5,3.4,-24.1,5.73,2.51,-20.7,27.6
2015-01-31 01:17:00,0.0,1.97220,0.00035,409.991,0.031,0.1092,0.0014,139.997,45.000,28838.56448,1.97430,410.529,34.503,45.068,45.001,0.00,0.09,-272.67,-272.74,-9,164,-3,21.1,3.4,-24.3,21.5,3.4,-24.1,5.73,2.03,-20.7,27.6
2015-01-31 01:18:00,0.0,1.97213,0.00038,409.981,0.039,0.1090,0.0017,140.000,45.000,28837.46273,1.97427,410.519,34.503,45.068,45.001,0.00,0.09,-272.70,-272.73,-10,163,-3,21.1,3.4,-24.4,21.5,3.4,-24.1,5.73,2.61,-20.7,27.6
2015-01-31 01:19:00,0.0,1.97223,0.00040,409.998,0.029,0.1089,0.0016,140.000,45.000,28836.28994,1.97434,410.535,34.503,45.068,45.001,0.00,0.09,-272.67,-272.77,-11,163,-3,21.1,3.4,-24.4,21.5,3.4,-24.1,5.73,2.21,-20.7,27.6
2015-01-31 01:20:00,0.0,1.97228,0.00044,410.015,0.031,0.1087,0.0016,140.000,45.000,28835.36227,1.97440,410.552,34.504,45.068,45.001,0.00,0.09,-272.69,-272.73,-9,163,-3,21.1,3.4,-24.4,21.5,3.4,-24.1,5.73,2.21,-20.7,27.6
2015-01-31 01:21:00,0.0,1.97208,0.00044,409.979,0.029,0.1090,0.0016,140.002,45.000,28839.41947,1.97423,410.518,34.531,45.068,45.001,0.00,0.09,-272.69,-272.74,-10,162,-3,21.1,3.4,-24.4,21.5,3.4,-24.1,5.73,2.60,-20.6,27.6
2015-01-31 01:22:00,0.0,1.97206,0.00040,409.972,0.038,0.1087,0.0016,139.999,45.000,28840.34028,1.97417,410.509,34.562,45.068,45.000,0.00,0.09,-272.67,-272.76,-11,163,-3,21.1,3.4,-24.4,21.5,3.4,-24.1,5.73,2.04,-20.7,27.6
2015-01-31 01:23:00,0.0,1.97242,0.00031,409.973,0.021,0.1086,0.0015,139.997,45.000,28840.52328,1.97447,410.508,34.589,45.067,45.000,0.00,0.09,-272.71,-272.73,-9,164,-3,21.1,3.4,-24.4,21.5,3.4,-24.1,5.73,2.47,-20.6,27.6
2015-01-31 01:24:00,0.0,1.97242,0.00037,409.961,0.021,0.1087,0.0016,139.999,45.000,28839.78791,1.97454,410.499,34.584,45.067,45.000,0.00,0.09,-272.66,-272.76,-10,163,-3,21.1,3.4,-24.4,21.5,3.4,-24.1,5.73,2.40,-20.6,27.6
2015-01-31 01:25:00,0.0,1.97240,0.00045,409.986,0.023,0.1080,0.0017,140.000,45.000,28839.84752,1.97451,410.518,34.566,45.067,45.000,0.00,0.09,-272.69,-272.74,-11,163,-3,21.1,3.4,-24.4,21.5,3.4,-24.1,5.73,2.07,-20.6,27.6
2015-01-31 01:26:00,0.0,1.97244,0.00038,409.991,0.031,0.1078,0.0018,139.999,45.000,28837.54318,1.97456,410.524,34.584,45.067,45.000,0.00,0.09,-272.70,-272.74,-9,163,-3,21.1,3.4,-24.4,21.5,3.4,-24.1,5.73,2.64,-20.6,27.6
2015-01-31 01:27:00,0.0,1.97205,0.00048,409.990,0.042,0.1082,0.0018,140.000,45.000,28839.38986,1.97413,410.524,34.608,45.067,45.000,0.00,0.09,-272.66,-272.76,-10,163,-3,21.1,3.4,-24.4,21.5,3.4,-24.1,5.73,2.13,-20.6,27.6
2015-01-31 01:28:00,0.0,1.97253,0.00040,409.998,0.024,0.1085,0.0014,140.000,45.000,28840.09606,1.97462,410.534,34.616,45.067,45.000,0.00,0.09,-272.70,-272.72,-11,163,-3,21.1,3.4,-24.4,21.5,3.4,-24.1,5.73,2.33,-20.6,27.6
2015-01-31 01:29:00,0.0,1.97264,0.00037,410.011,0.048,0.1081,0.0015,139.999,45.000,28839.44026,1.97475,410.543,34.599,45.067,45.000,0.00,0.09,-272.68,-272.75,-9,163,-3,21.1,3.4,-24.4,21.5,3.4,-24.1,5.73,2.56,-20.6,27.6
2015-01-31 01:30:00,0.0,1.97289,0.00036,409.986,0.027,0.1081,0.0018,139.998,45.000,28836.26861,1.97502,410.523,34.622,45.067,45.000,0.00,0.09,-272.67,-272.75,-9,163,-3,21.1,3.4,-24.5,21.5,3.4,-24.1,5.73,2.03,-20.6,27.6
2015-01-31 01:31:00,0.0,1.97240,0.00051,409.977,0.039,0.1086,0.0019,140.000,45.000,28840.10248,1.97452,410.513,34.624,45.067,45.000,0.00,0.09,-272.70,-272.73,-11,163,-3,21.1,3.4,-24.4,21.5,3.4,-24.0,5.73,2.60,-20.6,27.6
2015-01-31 01:32:00,0.0,1.97209,0.00032,409.971,0.031,0.1091,0.0020,140.000,45.000,28838.52160,1.97422,410.508,34.625,45.067,45.000,0.00,0.09,-272.67,-272.77,-9,163,-3,21.1,3.4,-24.5,21.5,3.4,-24.0,5.73,2.23,-20.6,27.6
2015-01-31 01:33:00,0.0,1.97222,0.00035,409.989,0.026,0.1091,0.0015,140.000,45.000,28836.91648,1.97434,410.529,34.625,45.067,45.000,0.00,0.09,-272.70,-272.74,-9,163,-3,21.1,3.4,-24.4,21.5,3.4,-24.0,5.73,2.21,-20.6,27.6
2015-01-31 01:34:00,0.0,1.97240,0.00041,409.975,0.038,0.1089,0.0019,140.002,45.000,28838.75732,1.97451,410.512,34.626,45.067,45.000,0.00,0.09,-272.68,-272.74,-11,163,-3,21.1,3.4,-24.5,21.5,3.4,-24.0,5.73,2.60,-20.6,27.6
2015-01-31 01:35:00,0.0,1.97211,0.00027,409.977,0.030,0.1089,0.0016,139.999,45.000,28837.69165,1.97422,410.516,34.641,45.067,45.000,0.00,0.09,-272.67,-272.76,-9,163,-3,21.1,3.4,-24.5,21.5,3.4,-24.0,5.73,2.02,-20.6,27.6
2015-01-31 01:36:00,0.0,1.97246,0.00046,409.984,0.023,0.1088,0.0017,140.000,45.000,28838.06382,1.97457,410.521,34.659,45.067,45.000,0.00,0.09,-272.71,-272.73,-9,163,-3,21.1,3.4,-24.5,21.5,3.4,-24.0,5.73,2.52,-20.6,27.6
2015-01-31 01:37:00,0.0,1.97261,0.00042,409.984,0.034,0.1080,0.0017,140.002,45.000,28839.87134,1.97472,410.519,34.668,45.067,45.000,0.00,0.09,-272.66,-272.76,-11,163,-3,21.1,3.3,-24.5,21.5,3.4,-24.0,5.73,2.33,-20.6,27.6
2015-01-31 01:38:00,0.0,1.97336,0.00038,409.972,0.035,0.1084,0.0012,140.000,45.000,28837.28952,1.97543,410.507,34.691,45.067,45.000,0.00,0.09,-272.69,-272.73,-9,164,-3,21.1,3.4,-24.5,21.5,3.4,-24.0,5.73,2.13,-20.6,27.6
2015-01-31 01:39:00,0.0,1.97306,0.00034,409.983,0.042,0.1084,0.0017,139.999,45.000,28835.64873,1.97518,410.518,34.716,45.067,45.000,0.00,0.09,-272.70,-272.75,-9,162,-3,21.1,3.3,-24.5,21.5,3.4,-24.0,5.73,2.63,-20.6,27.7
2015-01-31 01:40:00,0.0,1.97339,0.00024,409.981,0.037,0.1082,0.0014,140.000,45.000,28832.60110,1.97548,410.515,34.732,45.067,45.000,0.00,0.09,-272.66,-272.76,-11,163,-3,21.1,3.4,-24.5,21.5,3.4,-24.0,5.73,2.04,-20.6,27.6
2015-01-31 01:41:00,0.0,1.97319,0.00033,409.996,0.032,0.1073,0.0012,139.999,45.000,28831.49221,1.97526,410.527,34.739,45.067,45.000,0.00,0.09,-272.70,-272.72,-9,163,-3,21.2,3.3,-24.5,21.5,3.4,-24.0,5.73,2.46,-20.5,27.6
2015-01-31 01:42:00,0.0,1.97334,0.00043,409.983,0.031,0.1081,0.0020,140.001,45.000,28831.32327,1.97547,410.516,34.707,45.067,45.000,0.00,0.09,-272.66,-272.76,-9,162,-3,21.2,3.3,-24.5,21.5,3.4,-24.0,5.73,2.39,-20.5,27.6
2015-01-31 01:43:00,0.0,1.97296,0.00042,409.956,0.023,0.1072,0.0015,140.001,45.000,28831.37827,1.97507,410.487,34.700,45.067,45.000,0.00,0.09,-272.69,-272.74,-11,162,-3,21.2,3.3,-24.5,21.5,3.4,-24.0,5.73,2.08,-20.5,27.7
2015-01-31 01:44:00,0.0,1.97269,0.00032,409.961,0.025,0.1071,0.0015,139.999,45.000,28832.87099,1.97473,410.490,34.689,45.067,45.000,0.00,0.09,-272.69,-272.74,-9,163,-3,21.2,3.3,-24.6,21.5,3.4,-24.0,5.73,2.64,-20.5,27.7
2015-01-31 01:45:00,0.0,1.97238,0.00050,409.929,0.034,0.1074,0.0015,140.000,45.000,28834.89698,1.97451,410.461,34.688,45.067,45.000,0.00,0.09,-272.65,-272.76,-10,162,-3,21.1,3.3,-24.6,21.5,3.4,-23.9,5.73,2.08,-20.5,27.7